Time,TemperatureF,DewpointF,PressureIn,WindDirection,WindDirectionDegrees,WindSpeedMPH,WindSpeedGustMPH,Humidity,HourlyPrecipIn,Conditions,Clouds,dailyrainin,SoftwareType,DateUTC
2013-10-29 00:18:00,28.0,22.0,30.40,SW,225,0.0,0.0,77,0.00,,,0.02,,2013-10-29 05:18:00,
2013-10-29 00:45:00,28.0,20.0,30.40,SW,225,0.0,0.0,72,0.00,,,0.02,,2013-10-29 05:45:00,
2013-10-29 00:52:00,28.0,20.0,30.40,SW,225,0.0,0.0,72,0.00,,,0.02,,2013-10-29 05:52:00,
2013-10-29 01:16:00,28.0,20.0,30.41,SSW,200,0.0,0.0,72,0.00,,,0.02,,2013-10-29 06:16:00,
2013-10-29 01:25:00,28.0,21.0,30.41,SSW,207,0.0,0.0,74,0.00,,,0.02,,2013-10-29 06:25:00,
2013-10-29 01:43:00,28.0,21.0,30.42,SSW,207,0.0,0.0,74,0.00,,,0.02,,2013-10-29 06:43:00,
2013-10-29 01:52:00,28.0,21.0,30.42,SSW,207,0.0,0.0,75,0.00,,,0.02,,2013-10-29 06:52:00,
2013-10-29 02:11:00,28.0,21.0,30.41,SSW,207,0.0,0.0,75,0.00,,,0.02,,2013-10-29 07:11:00,
2013-10-29 02:24:00,28.0,21.0,30.41,SSW,207,0.0,0.0,76,0.00,,,0.02,,2013-10-29 07:24:00,
2013-10-29 02:55:00,28.0,21.0,30.41,SSW,206,0.0,0.0,75,0.00,,,0.02,,2013-10-29 07:55:00,
2013-10-29 03:13:00,28.0,21.0,30.41,ESE,116,0.0,1.0,75,0.00,,,0.02,,2013-10-29 08:13:00,
2013-10-29 03:24:00,29.0,22.0,30.41,South,176,0.0,0.0,74,0.00,,,0.02,,2013-10-29 08:24:00,
2013-10-29 03:42:00,30.0,23.0,30.41,SSW,200,0.0,0.0,74,0.00,,,0.02,,2013-10-29 08:42:00,
2013-10-29 03:52:00,30.0,23.0,30.41,South,175,0.0,0.0,75,0.00,,,0.02,,2013-10-29 08:52:00,
2013-10-29 04:21:00,30.0,23.0,30.40,South,179,0.0,0.0,74,0.00,,,0.02,,2013-10-29 09:21:00,
2013-10-29 04:53:00,30.0,23.0,30.40,South,179,0.0,0.0,74,0.00,,,0.02,,2013-10-29 09:53:00,
2013-10-29 05:23:00,30.0,23.0,30.40,SSW,213,0.0,0.0,74,0.00,,,0.02,,2013-10-29 10:23:00,
2013-10-29 05:53:00,31.0,23.0,30.40,SE,137,0.0,0.0,72,0.00,,,0.02,,2013-10-29 10:53:00,
2013-10-29 06:22:00,31.0,23.0,30.40,South,188,0.0,0.0,72,0.00,,,0.02,,2013-10-29 11:22:00,
2013-10-29 06:42:00,31.0,23.0,30.40,West,260,0.0,0.0,72,0.00,,,0.02,,2013-10-29 11:42:00,
2013-10-29 06:52:00,31.0,23.0,30.39,West,272,0.0,0.0,72,0.00,,,0.02,,2013-10-29 11:52:00,
2013-10-29 07:12:00,31.0,23.0,30.39,West,259,0.0,1.0,72,0.00,,,0.02,,2013-10-29 12:12:00,
2013-10-29 07:21:00,31.0,23.0,30.39,West,259,0.0,1.0,72,0.00,,,0.02,,2013-10-29 12:21:00,
2013-10-29 07:52:00,31.0,23.0,30.36,SW,223,0.0,2.0,72,0.00,,,0.02,,2013-10-29 12:52:00,
2013-10-29 08:11:00,31.0,23.0,30.36,SW,217,0.0,1.0,72,0.00,,,0.02,,2013-10-29 13:11:00,
2013-10-29 08:21:00,31.0,23.0,30.35,SW,223,0.0,0.0,72,0.00,,,0.02,,2013-10-29 13:21:00,
2013-10-29 08:42:00,31.0,23.0,30.35,SSW,207,0.0,0.0,72,0.00,,,0.02,,2013-10-29 13:42:00,
2013-10-29 08:52:00,32.0,24.0,30.35,SSW,202,0.0,0.0,72,0.00,,,0.02,,2013-10-29 13:52:00,
2013-10-29 09:21:00,33.0,25.0,30.36,ESE,111,0.0,0.0,72,0.00,,,0.02,,2013-10-29 14:21:00,
2013-10-29 09:42:00,33.0,25.0,30.35,East,89,0.0,1.0,72,0.00,,,0.02,,2013-10-29 14:42:00,
2013-10-29 09:52:00,34.0,26.0,30.35,NE,56,0.0,2.0,72,0.00,,,0.02,,2013-10-29 14:52:00,
2013-10-29 10:21:00,35.0,27.0,30.34,South,177,0.0,0.0,71,0.00,,,0.02,,2013-10-29 15:21:00,
2013-10-29 10:44:00,35.0,27.0,30.32,SSE,167,0.0,1.0,71,0.00,,,0.01,,2013-10-29 15:44:00,
2013-10-29 10:54:00,35.0,27.0,30.32,SSW,202,0.0,1.0,72,0.00,,,0.01,,2013-10-29 15:54:00,
2013-10-29 11:23:00,36.0,28.0,30.32,South,176,0.0,1.0,72,0.00,,,0.01,,2013-10-29 16:23:00,
2013-10-29 11:53:00,37.0,28.0,30.32,SSW,193,0.0,1.0,70,0.00,,,0.01,,2013-10-29 16:53:00,
2013-10-29 12:22:00,38.0,29.0,30.31,West,262,0.0,2.0,70,0.01,,,0.02,,2013-10-29 17:22:00,
2013-10-29 12:42:00,38.0,30.0,30.30,WSW,250,0.0,0.0,72,0.01,,,0.02,,2013-10-29 17:42:00,
2013-10-29 12:52:00,38.0,30.0,30.29,SW,228,0.0,3.0,73,0.04,,,0.05,,2013-10-29 17:52:00,
2013-10-29 13:21:00,38.0,30.0,30.27,NW,318,1.0,2.0,73,0.05,,,0.07,,2013-10-29 18:21:00,
2013-10-29 13:42:00,39.0,31.0,30.27,SW,214,1.0,3.0,72,0.06,,,0.07,,2013-10-29 18:42:00,
2013-10-29 13:52:00,39.0,30.0,30.26,WSW,258,0.0,1.0,71,0.05,,,0.08,,2013-10-29 18:52:00,
2013-10-29 14:11:00,39.0,30.0,30.25,SSW,194,0.0,3.0,71,0.08,,,0.13,,2013-10-29 19:11:00,
2013-10-29 14:21:00,40.0,31.0,30.24,WSW,243,0.0,2.0,70,0.12,,,0.18,,2013-10-29 19:21:00,
2013-10-29 14:53:00,41.0,32.0,30.21,SSW,211,0.0,3.0,69,0.16,,,0.25,,2013-10-29 19:53:00,
2013-10-29 15:12:00,41.0,32.0,30.22,South,169,0.0,2.0,69,0.13,,,0.26,,2013-10-29 20:12:00,
2013-10-29 15:22:00,41.0,32.0,30.20,SSW,200,0.0,2.0,69,0.10,,,0.28,,2013-10-29 20:22:00,
2013-10-29 15:42:00,41.0,32.0,30.20,NNW,346,0.0,3.0,69,0.08,,,0.29,,2013-10-29 20:42:00,
2013-10-29 15:52:00,42.0,32.0,30.20,WNW,298,1.0,2.0,68,0.07,,,0.31,,2013-10-29 20:52:00,
2013-10-29 16:22:00,42.0,33.0,30.19,ESE,119,0.0,3.0,70,0.06,,,0.34,,2013-10-29 21:22:00,
2013-10-29 16:54:00,41.0,32.0,30.18,SSE,164,0.0,3.0,70,0.05,,,0.37,,2013-10-29 21:54:00,
2013-10-29 17:23:00,41.0,33.0,30.16,SE,131,0.0,3.0,73,0.05,,,0.40,,2013-10-29 22:23:00,
2013-10-29 17:43:00,41.0,35.0,30.16,SSE,159,0.0,2.0,78,0.04,,,0.40,,2013-10-29 22:43:00,
2013-10-29 17:53:00,40.0,35.0,30.16,SW,234,0.0,2.0,81,0.05,,,0.42,,2013-10-29 22:53:00,
2013-10-29 18:12:00,40.0,35.0,30.16,WSW,241,0.0,0.0,81,0.04,,,0.42,,2013-10-29 23:12:00,
2013-10-29 18:22:00,40.0,35.0,30.15,WSW,238,0.0,0.0,81,0.04,,,0.44,,2013-10-29 23:22:00,
2013-10-29 18:53:00,40.0,35.0,30.15,WSW,238,0.0,0.0,81,0.03,,,0.45,,2013-10-29 23:53:00,
2013-10-29 19:21:00,40.0,35.0,30.15,WSW,238,0.0,0.0,81,0.03,,,0.47,,2013-10-30 00:21:00,
2013-10-29 19:42:00,40.0,35.0,30.15,WSW,238,0.0,0.0,82,0.03,,,0.48,,2013-10-30 00:42:00,
2013-10-29 19:52:00,40.0,35.0,30.15,WSW,238,0.0,0.0,81,0.03,,,0.48,,2013-10-30 00:52:00,
2013-10-29 20:11:00,40.0,35.0,30.14,WSW,241,0.0,0.0,82,0.03,,,0.49,,2013-10-30 01:11:00,
2013-10-29 20:22:00,41.0,36.0,30.14,SSW,198,0.0,0.0,82,0.03,,,0.50,,2013-10-30 01:22:00,
2013-10-29 20:52:00,41.0,36.0,30.13,South,184,0.0,0.0,82,0.02,,,0.51,,2013-10-30 01:52:00,
2013-10-29 21:21:00,41.0,36.0,30.12,ESE,102,0.0,0.0,83,0.01,,,0.51,,2013-10-30 02:21:00,
2013-10-29 21:52:00,40.0,35.0,30.12,SW,235,0.0,0.0,83,0.01,,,0.52,,2013-10-30 02:52:00,
2013-10-29 22:21:00,40.0,36.0,30.13,North,0,0.0,0.0,84,0.01,,,0.52,,2013-10-30 03:21:00,
2013-10-29 22:44:00,39.0,35.0,30.12,North,0,0.0,0.0,85,0.00,,,0.52,,2013-10-30 03:44:00,
2013-10-29 22:54:00,39.0,35.0,30.11,North,355,0.0,1.0,85,0.00,,,0.52,,2013-10-30 03:54:00,
2013-10-29 23:13:00,39.0,35.0,30.11,NW,326,0.0,0.0,85,0.00,,,0.52,,2013-10-30 04:13:00,
2013-10-29 23:53:00,39.0,35.0,30.10,West,259,0.0,0.0,85,0.00,,,0.52,,2013-10-30 04:53:00,